Regional Weather Roundup
Issued by NWS

Home | Current Version | Previous Version | Text Only | Print | Product List | Glossary On
Versions: 1 2 3 4 5 6 7 8 9 10 11 12 13 14 15 16 17 18 19 20 21 22 23 24 25 26 27 28 29 30 31 32 33 34 35 36 37 38 39 40 41 42 43 44 45 46 47 48 49 50
417
ASUS43 KOAX 190410
RWRNE

WEATHER ROUNDUP FOR NEBRASKA
NATIONAL WEATHER SERVICE OMAHA NE
1000 PM CST SUN FEB 18 2018

NOTES: SATELLITE DATA IS BEING USED TO AUGMENT CLOUD COVER ABOVE
       12000 FEET.
       "FAIR" INDICATES FEW OR NO CLOUDS BELOW 12,000 FEET WITH NO
       SIGNIFICANT WEATHER AND/OR OBSTRUCTIONS TO VISIBILITY.


NEZ001>004-019>022-054>056-190500-
NEBRASKA PANHANDLE

CITY           SKY/WX    TMP DP  RH WIND       PRES   REMARKS
SCOTTSBLUFF    CLOUDY    14   7  73 N17G25    29.74R WCI  -3
ALLIANCE       FLURRIES  10   7  87 N28G33    29.69F WCI -12
CHADRON        LGT SNOW   9   4  80 NE18      29.87F WCI -10
GORDON         LGT SNOW  10   5  79 N24G30    29.79S WCI -10
KIMBALL        FLURRIES  14  12  91 N18       29.62R WCI  -3
SIDNEY         MIX PCPN  15  11  83 N24G32    29.63R WCI  -4
$$

NEZ057>060-069>072-079>082-190500-
SOUTHWEST NEBRASKA

CITY           SKY/WX    TMP DP  RH WIND       PRES   REMARKS
NORTH PLATTE   CLOUDY    23  19  85 N25G35    29.66R WCI   7
IMPERIAL       CLOUDY    24  21  88 N23G36    29.63R WCI   9
LEXINGTON      CLOUDY    29  25  85 NE22G32   29.62R WCI  16
MCCOOK         CLOUDY    30  27  88 N20G28    29.59R WCI  17
OGALLALA       CLOUDY    22  17  80 N21G26    29.68R WCI   7
$$

NEZ005>010-023>029-035>040-094-190500-
NORTH CENTRAL NEBRASKA

CITY           SKY/WX    TMP DP  RH WIND       PRES   REMARKS
VALENTINE      FLURRIES  17  11  77 N23G32    29.78F WCI  -1
AINSWORTH      FLURRIES  18  16  94 N29G40    29.75F WCI  -1
BROKEN BOW     CLOUDY    23  20  88 N26G36    29.68R WCI   6
O`NEILL        CLOUDY    21  19  91 N23G33    29.75R WCI   5
ORD            CLOUDY    26  22  84 N26G38    29.68R WCI  10
THEDFORD       CLOUDY    18  14  85 N20G31    29.72R WCI   2
$$

NEZ041-046>049-061>064-073>077-083>087-190500-
SOUTH CENTRAL NEBRASKA

CITY           SKY/WX    TMP DP  RH WIND       PRES   REMARKS
GRAND ISLAND   CLOUDY    31  26  82 N25G33    29.65R WCI  17
AURORA         CLOUDY    32  27  82 N20G28    29.63R WCI  20
HASTINGS       CLOUDY    32  26  78 N22G32    29.61R WCI  19
HEBRON         CLOUDY    48  44  84 CALM      29.57R
HOLDREGE       CLOUDY    30  27  91 N24G30    29.59R WCI  16
KEARNEY        CLOUDY    29  26  89 N29G35    29.61R WCI  14
YORK           CLOUDY    32  32 100 N24G32    29.62S WCI  19
$$

NEZ011>018-030>034-042>045-190500-
NORTHEAST NEBRASKA

CITY           SKY/WX    TMP DP  RH WIND       PRES   REMARKS
NORFOLK        CLOUDY    27  24  89 N21G32    29.69R WCI  13
ALBION         CLOUDY    28  24  86 N23G29    29.67R WCI  14
BLAIR          CLOUDY    42  36  80 NW7       29.64S
COLUMBUS       CLOUDY    31  27  85 N18       29.66R WCI  19
FREMONT        CLOUDY    34  30  86 N9        29.67S WCI  26
TEKAMAH        CLOUDY    33  30  88 N12       29.67R WCI  24
WAYNE          CLEAR     28  27  96 N16G23    29.69S WCI  16
$$

NEZ050>053-065>068-078-088>093-190500-
SOUTHEAST NEBRASKA

CITY           SKY/WX    TMP DP  RH WIND       PRES   REMARKS
LINCOLN        CLOUDY    45  40  82 SE6       29.62R
OMAHA EPPLEY   CLOUDY    45  38  76 S7        29.63R
BEATRICE       PTCLDY    47  43  86 NE5       29.58S
FALLS CITY     CLOUDY    52  42  69 S14G25    29.63F
NEBRASKA CITY  CLOUDY    49  42  76 SE5       29.63S
PLATTSMOUTH    CLOUDY    47  41  80 SE7       29.63F
$$

NEZ044-045-051>053-067-190500-
OMAHA AREA

CITY           SKY/WX    TMP DP  RH WIND       PRES   REMARKS
OMAHA EPPLEY   CLOUDY    45  38  76 S7        29.63R
BLAIR          CLOUDY    42  36  80 NW7       29.64S
FREMONT        CLOUDY    34  30  86 N9        29.67S WCI  26
MILLARD        CLOUDY    46  40  80 E3        29.63S
OFFUTT AFB     CLOUDY    42  38  83 E6        29.62S
PLATTSMOUTH    CLOUDY    47  41  80 SE7       29.63F
WAHOO          CLOUDY    35  31  85 N16       29.65R WCI  25
$$




USA.gov is the U.S. government's official web portal to all federal, state and local government web resources and services.